This demonstration page uses our WeatherBlox Daily Observations layout. Learn more.

Left ArrowRight Arrow

44.8408, -93.29828

Hourly Observations for October 12, 2021

Temp ( °F °C ) Dew Point ( °F °C ) Humidity (%) Winds ( mph kmh ) Pressure ( in mb ) Visibility ( mi km ) Precip ( " mm )
12:53 am 00:53 Mostly Cloudy 60 15.6 52 11.1 75 75 N 9 15 29.81 1010 10 16 N/A
1:53 am 01:53 Mostly Cloudy 60 15.6 52 11.1 75 75 NW 8 13 29.83 1010 10 16 N/A
2:01 am 02:01 Cloudy 59 15 52 11.1 78 78 NW 8 13 29.83 1010 10 16 N/A
2:53 am 02:53 Cloudy 58 14.4 52 11.1 81 81 N 12 19 29.84 1011 10 16 N/A
3:53 am 03:53 Cloudy 58 14.4 52 11.1 81 81 N 9 15 29.85 1011 10 16 N/A
4:53 am 04:53 Cloudy 58 14.4 51 10.6 78 78 N 10 17 29.87 1012 10 16 N/A
5:53 am 05:53 Cloudy 58 14.4 52 11.1 81 81 N 7 11 29.89 1012 10 16 N/A
6:53 am 06:53 Cloudy 57 13.9 52 11.1 83 83 NW 8 13 29.91 1013 10 16 N/A
7:53 am 07:53 Cloudy 58 14.4 52 11.1 81 81 VRB 7 11 29.92 1013 10 16 N/A
8:53 am 08:53 Cloudy 58 14.4 52 11.1 81 81 NNW 8 13 29.94 1014 10 16 N/A
9:34 am 09:34 Cloudy 59 15 53 11.7 81 81 NNW 8 13 29.94 1014 10 16 N/A
9:53 am 09:53 Cloudy 60 15.6 53 11.7 78 78 NW 6 9 29.95 1014 10 16 N/A
10:53 am 10:53 Cloudy 60 15.6 53 11.7 78 78 NW 6 9 29.95 1014 10 16 N/A
11:53 am 11:53 Cloudy 60 15.6 53 11.7 78 78 WNW 5 7 29.96 1015 10 16 N/A
12:06 pm 12:06 Cloudy 60 15.6 53 11.7 78 78 NW 5 7 29.95 1014 10 16 N/A
12:53 pm 12:53 Cloudy 60 15.6 54 12.2 80 80 NNW 5 7 29.96 1014 10 16 0.00 0.00
1:53 pm 13:53 Cloudy 63 17.2 53 11.7 70 70 NW 7 11 29.95 1014 10 16 N/A
2:53 pm 14:53 Cloudy 62 16.7 54 12.2 75 75 NNW 6 9 29.95 1014 10 16 N/A
3:53 pm 15:53 Cloudy 64 17.8 54 12.2 70 70 NNW 5 7 29.93 1013 10 16 N/A
4:43 pm 16:43 Mostly Cloudy 64 17.8 54 12.2 70 70 NE 6 9 29.91 1013 10 16 N/A
4:53 pm 16:53 Mostly Cloudy 63 17.2 54 12.2 73 73 N N/A 29.92 1013 10 16 N/A
5:53 pm 17:53 Mostly Cloudy 63 17.2 54 12.2 73 73 ENE 5 7 29.93 1014 10 16 N/A
6:34 pm 18:34 Mostly Cloudy 63 17.2 54 12.2 73 73 NE 5 7 29.92 1013 10 16 N/A
6:53 pm 18:53 Mostly Cloudy 63 17.2 54 12.2 73 73 N N/A 29.94 1014 10 16 N/A
7:53 pm 19:53 Mostly Cloudy 62 16.7 55 12.8 78 78 VRB 6 9 29.96 1014 10 16 N/A
8:53 pm 20:53 Mostly Cloudy 61 16.1 55 12.8 81 81 E 5 7 29.95 1014 10 16 N/A
9:53 pm 21:53 Mostly Cloudy 62 16.7 55 12.8 78 78 E 7 11 29.94 1014 10 16 N/A
10:53 pm 22:53 Partly Cloudy 59 15 55 12.8 87 87 SE 3 6 29.95 1014 10 16 N/A
11:53 pm 23:53 Partly Cloudy 59 15 55 12.8 87 87 NNE 3 6 29.95 1014 10 16 N/A

Powered by AerisWeather